sat.trackr.live / text

‹ back to catalog

ZY-1 02D

NORAD 44528 · 2019-059A

PAYLOAD ACTIVE UNKNOWN

§ Identity

Operator
Country
PRC
Launch date
2019-09-12
Launch site
TAISC
Launch vehicle
Mass (kg)
RCS (m²)

External: N2YO · Heavens-Above · Gunter

§ Orbital elements

Epoch: 2026-05-25T04:56:58.062048Z

Period
100.32 min
Inclination
98.3196°
Eccentricity
0.0001561
Mean motion
14.35451572 rev/d
Perigee alt
772.4 km
Apogee alt
774.7 km
Semi-major
7,151.7 km
B*
4.4395e-5
RAAN
207.5034°
Arg perigee
143.6654°
Mean anomaly
216.4638°
Rev number
35,104

§ Raw data

ZY-1 02D1 44528U 19059A   26145.20622757  .00000086  00000+0  44395-4 0  99982 44528  98.3196 207.5034 0001561 143.6654 216.4638 14.35451572351044

JSON: /api/v1/satellites/44528 · /tle

For live sub-satellite position, see the globe view (requires WebGL).

§ Visibility from observer

Set your observer location to see the next 7 days of passes ≥ 10°. The values pass through the URL so the page stays shareable.

No JS? Fill the form by hand. The geolocation button needs JavaScript.

§ Radio — SatNOGS DB

ModeDescriptionDownlinkUplink
FM S-band telemetry 2.239 GHz

1 transmitter · refreshed weekly from db.satnogs.org